{"data":{"norad_id":62504,"epoch":"2026-09-21T16:47:17.478240Z","epoch_age_seconds":70859,"freshness":"FRESH","line1":"1 62504U 25003T   26264.69950785  .00006206  00000+0  23481-3 0  9990","line2":"2 62504  43.0024 261.5800 0001227 272.4950  87.5761 15.27587968 96530","mean_motion":15.27587968,"eccentricity":0.0001227,"inclination_deg":43.0024,"raan_deg":261.58,"arg_perigee_deg":272.495,"mean_anomaly_deg":87.5761,"bstar":0.00023481,"rev_number":9653,"period_min":94.266257012048,"perigee_km":482.1833724784,"apogee_km":483.86710169138,"semimajor_km":6861.1622370849,"source":"CELESTRAK","updated_at":"2026-09-22T09:00:49.619773Z"}}